GW2235 Weather Reports


time (UTC)temp
C
wind
direction
speed
KPH
gust
KPH
rain 1hr
cm
rain 24hr
cm
rain mn
cm
humidity
%
barometer
mb
20260504201503 20 205 11.3 22.5 0.00 0.00 0.00 31 1009.4
20260504200004 20 214 9.7 24.1 0.00 0.00 0.00 32 1009.4
20260504194502 20 170 8.0 22.5 0.00 0.00 0.00 32 1009.7
20260504193001 20 180 8.0 25.7 0.00 0.00 0.00 33 1009.8
20260504191501 19 176 12.9 27.4 0.00 0.00 0.00 34 1009.8
20260504190004 18 203 9.7 32.2 0.00 0.00 0.00 35 1010.0
20260504184459 18 193 11.3 27.4 0.00 0.00 0.00 35 1010.3
20260504183002 18 193 6.4 19.3 0.00 0.00 0.00 37 1010.4
20260504181501 18 79 9.7 37.0 0.00 0.00 0.00 34 1010.3
20260504180004 18 220 11.3 30.6 0.00 0.00 0.00 36 1010.4
20260504174459 18 209 8.0 32.2 0.00 0.00 0.00 33 1010.5
20260504173000 17 212 11.3 27.4 0.00 0.00 0.00 36 1010.6
20260504171459 18 167 11.3 25.7 0.00 0.00 0.00 37 1010.8
20260504081502 0 198 0.0 0.0 0.00 0.00 0.00 85 1013.7
20260504044457 2 198 0.0 0.0 0.00 0.00 0.00 77 1013.6
20260504043005 2 198 0.0 0.0 0.00 0.00 0.00 76 1013.5
20260504040006 2 198 0.0 0.0 0.00 0.00 0.00 74 1013.2
20260504034501 2 198 0.0 3.2 0.00 0.00 0.00 74 1013.1
20260504033005 2 198 0.0 0.0 0.00 0.00 0.00 72 1013.0
20260504031504 3 198 0.0 0.0 0.00 0.00 0.00 70 1013.0
20260504030004 3 198 0.0 0.0 0.00 0.00 0.00 69 1013.1
20260504024503 3 198 0.0 0.0 0.00 0.00 0.00 67 1013.1
20260504023004 4 198 0.0 0.0 0.00 0.00 0.00 66 1013.1
20260504021505 4 198 0.0 0.0 0.00 0.00 0.00 64 1013.1
20260504020006 5 198 0.0 0.0 0.00 0.00 0.00 62 1013.1
20260504014504 5 198 0.0 0.0 0.00 0.00 0.00 62 1013.0
20260504013005 6 198 0.0 0.0 0.00 0.00 0.00 61 1012.9
20260504011502 7 198 0.0 0.0 0.00 0.00 0.00 59 1012.6
20260504010005 7 198 0.0 0.0 0.00 0.00 0.00 55 1012.6
20260504003005 10 198 0.0 0.0 0.00 0.00 0.00 41 1012.4
20260503234502 11 248 3.2 6.4 0.00 0.00 0.00 35 1011.9
20260503233002 12 232 6.4 14.5 0.00 0.00 0.00 36 1011.6
20260503231500 12 163 8.0 17.7 0.00 0.00 0.00 34 1011.6
20260503230004 12 213 8.0 24.1 0.00 0.00 0.00 33 1011.6
20260503224501 12 213 8.0 24.1 0.00 0.00 0.00 34 1011.5
20260503223004 12 193 9.7 22.5 0.00 0.00 0.00 36 1011.6
20260503221500 12 258 8.0 24.1 0.00 0.00 0.00 34 1011.5
20260503220005 12 291 8.0 22.5 0.00 0.00 0.00 32 1011.4
20260503214502 12 200 11.3 24.1 0.00 0.00 0.00 31 1011.4
20260503213000 12 188 11.3 27.4 0.00 0.00 0.00 32 1011.2
20260503211503 12 298 11.3 20.9 0.00 0.00 0.00 34 1011.1
20260503210006 12 243 9.7 22.5 0.00 0.00 0.00 34 1011.2
20260503204504 12 321 9.7 19.3 0.00 0.00 0.00 29 1010.9
20260503203003 12 218 11.3 19.3 0.00 0.00 0.00 32 1011.0